This is the latest recevied weather packets stored in our database for station/object NC4M. If no packets are shown the sender has not sent any weather packets the latest 10 day(s).
| Time | Temp. | Humidity | Pressure | Rain* | Wind** | Luminosity | Snow |
|---|---|---|---|---|---|---|---|
| 1777405442 | 12.78° C | 92% | 1013.3 hPa | 4.83 mm | - | 10 W/m² | - |
| 1777405140 | 12.78° C | 91% | 1014.1 hPa | 3.05 mm | - | 10 W/m² | - |
| 1777404838 | 13.33° C | 90% | 1014.1 hPa | 4.32 mm | - | 10 W/m² | - |
| 1777404535 | 13.33° C | 90% | 1014.6 hPa | 4.83 mm | - | 12 W/m² | - |
| 1777404230 | 13.33° C | 89% | 1015.5 hPa | 1.78 mm | - | 13 W/m² | - |
| 1777403927 | 13.33° C | 88% | 1015.6 hPa | 1.78 mm | - | 14 W/m² | - |
| 1777403626 | 13.33° C | 87% | 1015.7 hPa | 0 mm | - | 13 W/m² | - |
| 1777403321 | 13.33° C | 87% | 1015.7 hPa | 0 mm | - | 13 W/m² | - |
| 1777403016 | 13.89° C | 85% | 1016.5 hPa | 1.27 mm | - | 14 W/m² | - |
| 1777402711 | 14.44° C | 83% | 1016.8 hPa | 6.1 mm | - | 17 W/m² | - |
| 1777402412 | 15° C | 78% | 1016.9 hPa | 4.83 mm | - | 14 W/m² | - |
| 1777402110 | 15.56° C | 75% | 1016.4 hPa | 0 mm | - | 7 W/m² | - |
| 1777401806 | 15.56° C | 73% | 1016.4 hPa | 0 mm | - | 5 W/m² | - |
| 1777401505 | 16.11° C | 72% | 1015.5 hPa | 0 mm | - | 6 W/m² | - |
| 1777401201 | 16.11° C | 71% | 1015.4 hPa | 0 mm | - | 6 W/m² | - |
| 1777400897 | 16.11° C | 73% | 1015 hPa | 0 mm | - | 8 W/m² | - |
| 1777400593 | 16.11° C | 72% | 1015.4 hPa | 0 mm | - | 11 W/m² | - |
| 1777400291 | 16.11° C | 71% | 1016 hPa | 0 mm | - | 11 W/m² | - |
| 1777399986 | 16.11° C | 69% | 1016.2 hPa | 0 mm | - | 12 W/m² | - |
| 1777399683 | 16.11° C | 71% | 1016 hPa | 0 mm | - | 21 W/m² | - |
| 1777399380 | 16.67° C | 70% | 1016.3 hPa | 0 mm | - | 16 W/m² | - |
| 1777399078 | 16.67° C | 67% | 1015.5 hPa | 0 mm | - | 20 W/m² | - |
| 1777398775 | 16.67° C | 67% | 1015.4 hPa | 0 mm | - | 35 W/m² | - |
| 1777398472 | 17.22° C | 66% | 1015.2 hPa | 0 mm | - | 56 W/m² | - |
| 1777398169 | 17.78° C | 63% | 1014.8 hPa | 0 mm | - | 63 W/m² | - |
* Rain latest hour (hover to see other rain measurements)
** Current wind speed in m/s (hover to see current wind gust speed)